Year,Month,Day,Hour,Minute,Value (Times are PST for temperature in C)
2015,10,16,00,00,9.30
2015,10,16,00,01,9.30
2015,10,16,00,02,9.30
2015,10,16,00,03,9.30
2015,10,16,00,04,9.30
2015,10,16,00,05,9.20
2015,10,16,00,06,9.20
2015,10,16,00,07,9.20
2015,10,16,00,08,9.20
2015,10,16,00,09,9.20
2015,10,16,00,10,9.10
2015,10,16,00,11,9.10
2015,10,16,00,12,9.10
2015,10,16,00,13,9.10
2015,10,16,00,14,9.00
2015,10,16,00,15,9.00
2015,10,16,00,16,9.00
2015,10,16,00,17,9.00
2015,10,16,00,18,9.00
2015,10,16,00,19,9.00
2015,10,16,00,20,9.00
2015,10,16,00,21,9.00
2015,10,16,00,22,9.00
2015,10,16,00,23,8.90
2015,10,16,00,24,8.90
2015,10,16,00,25,8.90
2015,10,16,00,26,8.90
2015,10,16,00,27,8.90
2015,10,16,00,28,8.90
2015,10,16,00,29,8.90
2015,10,16,00,30,8.80
2015,10,16,00,31,8.80
2015,10,16,00,32,8.80
2015,10,16,00,33,8.80
2015,10,16,00,34,8.80
2015,10,16,00,35,8.70
2015,10,16,00,36,8.70
2015,10,16,00,37,8.70
2015,10,16,00,38,8.70
2015,10,16,00,39,8.70
2015,10,16,00,40,8.80
2015,10,16,00,41,8.80
2015,10,16,00,42,8.80
2015,10,16,00,43,8.90
2015,10,16,00,44,8.90
2015,10,16,00,45,9.00
2015,10,16,00,46,9.00
2015,10,16,00,47,9.00
2015,10,16,00,48,9.10
2015,10,16,00,49,9.10
2015,10,16,00,50,9.20
2015,10,16,00,51,9.20
2015,10,16,00,52,9.20
2015,10,16,00,53,9.20
2015,10,16,00,54,9.30
2015,10,16,00,55,9.40
2015,10,16,00,56,9.50
2015,10,16,00,57,9.50
2015,10,16,00,58,9.60
2015,10,16,00,59,9.70
2015,10,16,01,00,9.80
2015,10,16,01,01,9.80
2015,10,16,01,02,9.80
2015,10,16,01,03,9.70
2015,10,16,01,04,9.60
2015,10,16,01,05,9.60
2015,10,16,01,06,9.50
2015,10,16,01,07,9.40
2015,10,16,01,08,9.30
2015,10,16,01,09,9.20
2015,10,16,01,10,9.20
2015,10,16,01,11,9.10
2015,10,16,01,12,9.10
2015,10,16,01,13,9.00
2015,10,16,01,14,9.00
2015,10,16,01,15,9.00
2015,10,16,01,16,9.00
2015,10,16,01,17,8.90
2015,10,16,01,18,8.90
2015,10,16,01,19,8.90
2015,10,16,01,20,8.90
2015,10,16,01,21,8.90
2015,10,16,01,22,8.90
2015,10,16,01,23,8.90
2015,10,16,01,24,8.90
2015,10,16,01,25,8.90
2015,10,16,01,26,8.90
2015,10,16,01,27,9.00
2015,10,16,01,28,9.00
2015,10,16,01,29,9.00
2015,10,16,01,30,9.00
2015,10,16,01,31,9.00
2015,10,16,01,32,9.10
2015,10,16,01,33,9.20
2015,10,16,01,34,9.30
2015,10,16,01,35,9.40
2015,10,16,01,36,9.50
2015,10,16,01,37,9.60
2015,10,16,01,38,9.70
2015,10,16,01,39,9.70
2015,10,16,01,40,9.80
2015,10,16,01,41,9.90
2015,10,16,01,42,10.00
2015,10,16,01,43,10.10
2015,10,16,01,44,10.00
2015,10,16,01,45,9.90
2015,10,16,01,46,9.80
2015,10,16,01,47,9.70
2015,10,16,01,48,9.50
2015,10,16,01,49,9.40
2015,10,16,01,50,9.30
2015,10,16,01,51,9.20
2015,10,16,01,52,9.10
2015,10,16,01,53,9.10
2015,10,16,01,54,9.00
2015,10,16,01,55,9.00
2015,10,16,01,56,8.90
2015,10,16,01,57,8.90
2015,10,16,01,58,8.90
2015,10,16,01,59,8.90
2015,10,16,02,00,8.90
2015,10,16,02,01,9.00
2015,10,16,02,02,9.10
2015,10,16,02,03,9.20
2015,10,16,02,04,9.30
2015,10,16,02,05,9.50
2015,10,16,02,06,9.70
2015,10,16,02,07,9.80
2015,10,16,02,08,9.90
2015,10,16,02,09,10.00
2015,10,16,02,10,10.00
2015,10,16,02,11,10.00
2015,10,16,02,12,10.00
2015,10,16,02,13,9.90
2015,10,16,02,14,10.00
2015,10,16,02,15,10.10
2015,10,16,02,16,10.20
2015,10,16,02,17,10.30
2015,10,16,02,18,10.40
2015,10,16,02,19,10.50
2015,10,16,02,20,10.70
2015,10,16,02,21,10.80
2015,10,16,02,22,11.00
2015,10,16,02,23,11.10
2015,10,16,02,24,11.30
2015,10,16,02,25,11.50
2015,10,16,02,26,11.60
2015,10,16,02,27,11.80
2015,10,16,02,28,11.80
2015,10,16,02,29,11.80
2015,10,16,02,30,11.80
2015,10,16,02,31,11.60
2015,10,16,02,32,11.50
2015,10,16,02,33,11.50
2015,10,16,02,34,11.40
2015,10,16,02,35,11.30
2015,10,16,02,36,11.40
2015,10,16,02,37,11.50
2015,10,16,02,38,11.60
2015,10,16,02,39,11.70
2015,10,16,02,40,11.80
2015,10,16,02,41,11.90
2015,10,16,02,42,11.90
2015,10,16,02,43,12.00
2015,10,16,02,44,12.00
2015,10,16,02,45,12.00
2015,10,16,02,46,12.00
2015,10,16,02,47,12.00
2015,10,16,02,48,12.10
2015,10,16,02,49,12.20
2015,10,16,02,50,12.30
2015,10,16,02,51,12.40
2015,10,16,02,52,12.50
2015,10,16,02,53,12.60
2015,10,16,02,54,12.70
2015,10,16,02,55,12.70
2015,10,16,02,56,12.80
2015,10,16,02,57,12.80
2015,10,16,02,58,12.90
2015,10,16,02,59,12.90
2015,10,16,03,00,13.00
2015,10,16,03,01,13.00
2015,10,16,03,02,13.00
2015,10,16,03,03,13.00
2015,10,16,03,04,13.00
2015,10,16,03,05,13.00
2015,10,16,03,06,12.90
2015,10,16,03,07,12.90
2015,10,16,03,08,12.90
2015,10,16,03,09,12.80
2015,10,16,03,10,12.90
2015,10,16,03,11,12.80
2015,10,16,03,12,12.80
2015,10,16,03,13,12.70
2015,10,16,03,14,12.50
2015,10,16,03,15,12.20
2015,10,16,03,16,11.90
2015,10,16,03,17,11.70
2015,10,16,03,18,11.50
2015,10,16,03,19,11.30
2015,10,16,03,20,11.10
2015,10,16,03,21,11.00
2015,10,16,03,22,10.90
2015,10,16,03,23,10.90
2015,10,16,03,24,10.90
2015,10,16,03,25,11.00
2015,10,16,03,26,11.10
2015,10,16,03,27,11.30
2015,10,16,03,28,11.50
2015,10,16,03,29,11.60
2015,10,16,03,30,11.80
2015,10,16,03,31,11.90
2015,10,16,03,32,12.00
2015,10,16,03,33,12.20
2015,10,16,03,34,12.30
2015,10,16,03,35,12.30
2015,10,16,03,36,12.40
2015,10,16,03,37,12.30
2015,10,16,03,38,12.30
2015,10,16,03,39,12.30
2015,10,16,03,40,12.30
2015,10,16,03,41,12.30
2015,10,16,03,42,12.30
2015,10,16,03,43,12.30
2015,10,16,03,44,12.30
2015,10,16,03,45,12.30
2015,10,16,03,46,12.30
2015,10,16,03,47,12.20
2015,10,16,03,48,12.20
2015,10,16,03,49,12.20
2015,10,16,03,50,12.10
2015,10,16,03,51,12.10
2015,10,16,03,52,12.20
2015,10,16,03,53,12.20
2015,10,16,03,54,12.30
2015,10,16,03,55,12.40
2015,10,16,03,56,12.40
2015,10,16,03,57,12.50
2015,10,16,03,58,12.50
2015,10,16,03,59,12.40
2015,10,16,04,00,12.30
2015,10,16,04,01,12.30
2015,10,16,04,02,12.20
2015,10,16,04,03,12.20
2015,10,16,04,04,12.30
2015,10,16,04,05,12.30
2015,10,16,04,06,12.30
2015,10,16,04,07,12.30
2015,10,16,04,08,12.30
2015,10,16,04,09,12.30
2015,10,16,04,10,12.30
2015,10,16,04,11,12.30
2015,10,16,04,12,12.30
2015,10,16,04,13,12.30
2015,10,16,04,14,12.30
2015,10,16,04,15,12.20
2015,10,16,04,16,12.20
2015,10,16,04,17,12.20
2015,10,16,04,18,12.10
2015,10,16,04,19,12.10
2015,10,16,04,20,12.10
2015,10,16,04,21,12.10
2015,10,16,04,22,12.10
2015,10,16,04,23,12.10
2015,10,16,04,24,12.10
2015,10,16,04,25,12.10
2015,10,16,04,26,12.10
2015,10,16,04,27,12.20
2015,10,16,04,28,12.20
2015,10,16,04,29,12.20
2015,10,16,04,30,12.20
2015,10,16,04,31,12.20
2015,10,16,04,32,12.20
2015,10,16,04,33,12.20
2015,10,16,04,34,12.20
2015,10,16,04,35,12.30
2015,10,16,04,36,12.30
2015,10,16,04,37,12.40
2015,10,16,04,38,12.40
2015,10,16,04,39,12.50
2015,10,16,04,40,12.50
2015,10,16,04,41,12.50
2015,10,16,04,42,12.60
2015,10,16,04,43,12.60
2015,10,16,04,44,12.60
2015,10,16,04,45,12.60
2015,10,16,04,46,12.60
2015,10,16,04,47,12.60
2015,10,16,04,48,12.50
2015,10,16,04,49,12.50
2015,10,16,04,50,12.50
2015,10,16,04,51,12.50
2015,10,16,04,52,12.50
2015,10,16,04,53,12.50
2015,10,16,04,54,12.50
2015,10,16,04,55,12.60
2015,10,16,04,56,12.60
2015,10,16,04,57,12.50
2015,10,16,04,58,12.50
2015,10,16,04,59,12.40
2015,10,16,05,00,12.30
2015,10,16,05,01,12.20
2015,10,16,05,02,12.20
2015,10,16,05,03,12.10
2015,10,16,05,04,12.00
2015,10,16,05,05,11.90
2015,10,16,05,06,11.80
2015,10,16,05,07,11.80
2015,10,16,05,08,11.80
2015,10,16,05,09,11.70
2015,10,16,05,10,11.70
2015,10,16,05,11,11.70
2015,10,16,05,12,11.60
2015,10,16,05,13,11.60
2015,10,16,05,14,11.60
2015,10,16,05,15,11.60
2015,10,16,05,16,11.60
2015,10,16,05,17,11.60
2015,10,16,05,18,11.60
2015,10,16,05,19,11.50
2015,10,16,05,20,11.50
2015,10,16,05,21,11.50
2015,10,16,05,22,11.50
2015,10,16,05,23,11.50
2015,10,16,05,24,11.60
2015,10,16,05,25,11.60
2015,10,16,05,26,11.70
2015,10,16,05,27,11.80
2015,10,16,05,28,11.90
2015,10,16,05,29,12.00
2015,10,16,05,30,12.10
2015,10,16,05,31,12.20
2015,10,16,05,32,12.20
2015,10,16,05,33,12.30
2015,10,16,05,34,12.30
2015,10,16,05,35,12.40
2015,10,16,05,36,12.40
2015,10,16,05,37,12.40
2015,10,16,05,38,12.50
2015,10,16,05,39,12.50
2015,10,16,05,40,12.50
2015,10,16,05,41,12.60
2015,10,16,05,42,12.60
2015,10,16,05,43,12.60
2015,10,16,05,44,12.60
2015,10,16,05,45,12.60
2015,10,16,05,46,12.50
2015,10,16,05,47,12.40
2015,10,16,05,48,12.30
2015,10,16,05,49,12.30
2015,10,16,05,50,12.30
2015,10,16,05,51,12.20
2015,10,16,05,52,12.20
2015,10,16,05,53,12.20
2015,10,16,05,54,12.20
2015,10,16,05,55,12.20
2015,10,16,05,56,12.20
2015,10,16,05,57,12.20
2015,10,16,05,58,12.20
2015,10,16,05,59,12.10
2015,10,16,06,00,12.10
2015,10,16,06,01,12.10
2015,10,16,06,02,12.00
2015,10,16,06,03,12.00
2015,10,16,06,04,11.90
2015,10,16,06,05,11.90
2015,10,16,06,06,11.90
2015,10,16,06,07,11.90
2015,10,16,06,08,11.80
2015,10,16,06,09,11.90
2015,10,16,06,10,11.90
2015,10,16,06,11,11.90
2015,10,16,06,12,12.00
2015,10,16,06,13,12.00
2015,10,16,06,14,12.00
2015,10,16,06,15,12.10
2015,10,16,06,16,12.10
2015,10,16,06,17,12.10
2015,10,16,06,18,12.10
2015,10,16,06,19,12.10
2015,10,16,06,20,12.00
2015,10,16,06,21,12.00
2015,10,16,06,22,11.90
2015,10,16,06,23,11.90
2015,10,16,06,24,11.80
2015,10,16,06,25,11.80
2015,10,16,06,26,11.60
2015,10,16,06,27,11.50
2015,10,16,06,28,11.40
2015,10,16,06,29,11.30
2015,10,16,06,30,11.20
2015,10,16,06,31,11.00
2015,10,16,06,32,11.00
2015,10,16,06,33,10.90
2015,10,16,06,34,10.90
2015,10,16,06,35,10.80
2015,10,16,06,36,10.80
2015,10,16,06,37,10.90
2015,10,16,06,38,10.90
2015,10,16,06,39,10.90
2015,10,16,06,40,10.80
2015,10,16,06,41,10.80
2015,10,16,06,42,10.80
2015,10,16,06,43,10.70
2015,10,16,06,44,10.60
2015,10,16,06,45,10.50
2015,10,16,06,46,10.30
2015,10,16,06,47,10.20
2015,10,16,06,48,10.20
2015,10,16,06,49,10.10
2015,10,16,06,50,10.10
2015,10,16,06,51,10.10
2015,10,16,06,52,10.00
2015,10,16,06,53,10.00
2015,10,16,06,54,9.90
2015,10,16,06,55,9.90
2015,10,16,06,56,9.80
2015,10,16,06,57,9.80
2015,10,16,06,58,9.80
2015,10,16,06,59,9.80
2015,10,16,07,00,9.70
2015,10,16,07,01,9.70
2015,10,16,07,02,9.70
2015,10,16,07,03,9.70
2015,10,16,07,04,9.60
2015,10,16,07,05,9.60
2015,10,16,07,06,9.60
2015,10,16,07,07,9.60
2015,10,16,07,08,9.60
2015,10,16,07,09,9.60
2015,10,16,07,10,9.50
2015,10,16,07,11,9.50
2015,10,16,07,12,9.50
2015,10,16,07,13,9.50
2015,10,16,07,14,9.50
2015,10,16,07,15,9.50
2015,10,16,07,16,9.50
2015,10,16,07,17,9.50
2015,10,16,07,18,9.50
2015,10,16,07,19,9.50
2015,10,16,07,20,9.60
2015,10,16,07,21,9.60
2015,10,16,07,22,9.60
2015,10,16,07,23,9.60
2015,10,16,07,24,9.60
2015,10,16,07,25,9.60
2015,10,16,07,26,9.60
2015,10,16,07,27,9.60
2015,10,16,07,28,9.60
2015,10,16,07,29,9.60
2015,10,16,07,30,9.70
2015,10,16,07,31,9.70
2015,10,16,07,32,9.70
2015,10,16,07,33,9.70
2015,10,16,07,34,9.70
2015,10,16,07,35,9.70
2015,10,16,07,36,9.60
2015,10,16,07,37,9.60
2015,10,16,07,38,9.50
2015,10,16,07,39,9.40
2015,10,16,07,40,9.40
2015,10,16,07,41,9.40
2015,10,16,07,42,9.30
2015,10,16,07,43,9.30
2015,10,16,07,44,9.30
2015,10,16,07,45,9.30
2015,10,16,07,46,9.30
2015,10,16,07,47,9.40
2015,10,16,07,48,9.40
2015,10,16,07,49,9.40
2015,10,16,07,50,9.40
2015,10,16,07,51,9.40
2015,10,16,07,52,9.40
2015,10,16,07,53,9.40
2015,10,16,07,54,9.30
2015,10,16,07,55,9.30
2015,10,16,07,56,9.20
2015,10,16,07,57,9.20
2015,10,16,07,58,9.20
2015,10,16,07,59,9.20
2015,10,16,08,00,9.20
2015,10,16,08,01,9.20
2015,10,16,08,02,9.20
2015,10,16,08,03,9.20
2015,10,16,08,04,9.20
2015,10,16,08,05,9.20
2015,10,16,08,06,9.30
2015,10,16,08,07,9.30
2015,10,16,08,08,9.40
2015,10,16,08,09,9.50
2015,10,16,08,10,9.50
2015,10,16,08,11,9.60
2015,10,16,08,12,9.60
2015,10,16,08,13,9.70
2015,10,16,08,14,9.70
2015,10,16,08,15,9.80
2015,10,16,08,16,9.90
2015,10,16,08,17,10.00
2015,10,16,08,18,10.10
2015,10,16,08,19,10.10
2015,10,16,08,20,10.20
2015,10,16,08,21,10.20
2015,10,16,08,22,10.20
2015,10,16,08,23,10.20
2015,10,16,08,24,10.20
2015,10,16,08,25,10.20
2015,10,16,08,26,10.30
2015,10,16,08,27,10.30
2015,10,16,08,28,10.40
2015,10,16,08,29,10.40
2015,10,16,08,30,10.40
2015,10,16,08,31,10.50
2015,10,16,08,32,10.60
2015,10,16,08,33,10.70
2015,10,16,08,34,10.70
2015,10,16,08,35,10.80
2015,10,16,08,36,10.80
2015,10,16,08,37,10.80
2015,10,16,08,38,10.80
2015,10,16,08,39,10.80
2015,10,16,08,40,10.80
2015,10,16,08,41,10.70
2015,10,16,08,42,10.60
2015,10,16,08,43,10.50
2015,10,16,08,44,10.40
2015,10,16,08,45,10.30
2015,10,16,08,46,10.30
2015,10,16,08,47,10.30
2015,10,16,08,48,10.30
2015,10,16,08,49,10.30
2015,10,16,08,50,10.30
2015,10,16,08,51,10.30
2015,10,16,08,52,10.30
2015,10,16,08,53,10.40
2015,10,16,08,54,10.50
2015,10,16,08,55,10.60
2015,10,16,08,56,10.70
2015,10,16,08,57,10.80
2015,10,16,08,58,11.00
2015,10,16,08,59,11.10
2015,10,16,09,00,11.20
2015,10,16,09,01,11.30
2015,10,16,09,02,11.50
2015,10,16,09,03,11.60
2015,10,16,09,04,11.80
2015,10,16,09,05,11.90
2015,10,16,09,06,12.00
2015,10,16,09,07,12.20
2015,10,16,09,08,12.30
2015,10,16,09,09,12.50
2015,10,16,09,10,12.70
2015,10,16,09,11,12.80
2015,10,16,09,12,13.00
2015,10,16,09,13,13.10
2015,10,16,09,14,13.30
2015,10,16,09,15,13.40
2015,10,16,09,16,13.60
2015,10,16,09,17,13.70
2015,10,16,09,18,13.80
2015,10,16,09,19,13.90
2015,10,16,09,20,14.00
2015,10,16,09,21,14.10
2015,10,16,09,22,14.20
2015,10,16,09,23,14.20
2015,10,16,09,24,14.30
2015,10,16,09,25,14.40
2015,10,16,09,26,14.50
2015,10,16,09,27,14.50
2015,10,16,09,28,14.60
2015,10,16,09,29,14.60
2015,10,16,09,30,14.70
2015,10,16,09,31,14.80
2015,10,16,09,32,14.80
2015,10,16,09,33,14.90
2015,10,16,09,34,14.90
2015,10,16,09,35,15.00
2015,10,16,09,36,15.10
2015,10,16,09,37,15.10
2015,10,16,09,38,15.20
2015,10,16,09,39,15.20
2015,10,16,09,40,15.30
2015,10,16,09,41,15.40
2015,10,16,09,42,15.40
2015,10,16,09,43,15.50
2015,10,16,09,44,15.60
2015,10,16,09,45,15.60
2015,10,16,09,46,15.70
2015,10,16,09,47,15.70
2015,10,16,09,48,15.80
2015,10,16,09,49,15.80
2015,10,16,09,50,15.80
2015,10,16,09,51,15.90
2015,10,16,09,52,15.90
2015,10,16,09,53,16.00
2015,10,16,09,54,16.00
2015,10,16,09,55,16.00
2015,10,16,09,56,16.10
2015,10,16,09,57,16.10
2015,10,16,09,58,16.10
2015,10,16,09,59,16.20
2015,10,16,10,00,16.20
2015,10,16,10,01,16.30
2015,10,16,10,02,16.30
2015,10,16,10,03,16.30
2015,10,16,10,04,16.40
2015,10,16,10,05,16.40
2015,10,16,10,06,16.50
2015,10,16,10,07,16.50
2015,10,16,10,08,16.60
2015,10,16,10,09,16.60
2015,10,16,10,10,16.70
2015,10,16,10,11,16.70
2015,10,16,10,12,16.80
2015,10,16,10,13,16.80
2015,10,16,10,14,16.80
2015,10,16,10,15,16.80
2015,10,16,10,16,16.90
2015,10,16,10,17,16.90
2015,10,16,10,18,16.90
2015,10,16,10,19,16.90
2015,10,16,10,20,17.00
2015,10,16,10,21,17.00
2015,10,16,10,22,17.10
2015,10,16,10,23,17.10
2015,10,16,10,24,17.20
2015,10,16,10,25,17.20
2015,10,16,10,26,17.20
2015,10,16,10,27,17.20
2015,10,16,10,28,17.20
2015,10,16,10,29,17.30
2015,10,16,10,30,17.30
2015,10,16,10,31,17.30
2015,10,16,10,32,17.40
2015,10,16,10,33,17.40
2015,10,16,10,34,17.40
2015,10,16,10,35,17.40
2015,10,16,10,36,17.40
2015,10,16,10,37,17.50
2015,10,16,10,38,17.50
2015,10,16,10,39,17.50
2015,10,16,10,40,17.50
2015,10,16,10,41,17.50
2015,10,16,10,42,17.60
2015,10,16,10,43,17.60
2015,10,16,10,44,17.70
2015,10,16,10,45,17.70
2015,10,16,10,46,17.70
2015,10,16,10,47,17.70
2015,10,16,10,48,17.80
2015,10,16,10,49,17.80
2015,10,16,10,50,17.80
2015,10,16,10,51,17.80
2015,10,16,10,52,17.80
2015,10,16,10,53,17.90
2015,10,16,10,54,17.90
2015,10,16,10,55,17.90
2015,10,16,10,56,17.90
2015,10,16,10,57,17.90
2015,10,16,10,58,18.00
2015,10,16,10,59,18.00
2015,10,16,11,00,18.00
2015,10,16,11,01,18.00
2015,10,16,11,02,18.00
2015,10,16,11,03,18.10
2015,10,16,11,04,18.10
2015,10,16,11,05,18.20
2015,10,16,11,06,18.20
2015,10,16,11,07,18.20
2015,10,16,11,08,18.10
2015,10,16,11,09,18.10
2015,10,16,11,10,18.10
2015,10,16,11,11,18.00
2015,10,16,11,12,18.00
2015,10,16,11,13,18.00
2015,10,16,11,14,18.00
2015,10,16,11,15,18.10
2015,10,16,11,16,18.10
2015,10,16,11,17,18.10
2015,10,16,11,18,18.10
2015,10,16,11,19,18.10
2015,10,16,11,20,18.10
2015,10,16,11,21,18.10
2015,10,16,11,22,18.00
2015,10,16,11,23,18.00
2015,10,16,11,24,17.90
2015,10,16,11,25,17.80
2015,10,16,11,26,17.80
2015,10,16,11,27,17.80
2015,10,16,11,28,17.80
2015,10,16,11,29,17.80
2015,10,16,11,30,17.80
2015,10,16,11,31,17.80
2015,10,16,11,32,17.80
2015,10,16,11,33,17.80
2015,10,16,11,34,17.80
2015,10,16,11,35,17.80
2015,10,16,11,36,17.80
2015,10,16,11,37,17.80
2015,10,16,11,38,17.80
2015,10,16,11,39,17.80
2015,10,16,11,40,17.80
2015,10,16,11,41,17.80
2015,10,16,11,42,17.80
2015,10,16,11,43,17.90
2015,10,16,11,44,17.90
2015,10,16,11,45,18.00
2015,10,16,11,46,18.00
2015,10,16,11,47,18.10
2015,10,16,11,48,18.10
2015,10,16,11,49,18.10
2015,10,16,11,50,18.10
2015,10,16,11,51,18.20
2015,10,16,11,52,18.20
2015,10,16,11,53,18.20
2015,10,16,11,54,18.30
2015,10,16,11,55,18.30
2015,10,16,11,56,18.40
2015,10,16,11,57,18.40
2015,10,16,11,58,18.40
2015,10,16,11,59,18.50
2015,10,16,12,00,18.50
2015,10,16,12,01,18.60
2015,10,16,12,02,18.60
2015,10,16,12,03,18.70
2015,10,16,12,04,18.70
2015,10,16,12,05,18.80
2015,10,16,12,06,18.80
2015,10,16,12,07,18.80
2015,10,16,12,08,18.80
2015,10,16,12,09,18.80
2015,10,16,12,10,18.70
2015,10,16,12,11,18.70
2015,10,16,12,12,18.60
2015,10,16,12,13,18.60
2015,10,16,12,14,18.50
2015,10,16,12,15,18.50
2015,10,16,12,16,18.50
2015,10,16,12,17,18.40
2015,10,16,12,18,18.40
2015,10,16,12,19,18.40
2015,10,16,12,20,18.40
2015,10,16,12,21,18.30
2015,10,16,12,22,18.30
2015,10,16,12,23,18.30
2015,10,16,12,24,18.30
2015,10,16,12,25,18.30
2015,10,16,12,26,18.30
2015,10,16,12,27,18.30
2015,10,16,12,28,18.30
2015,10,16,12,29,18.40
2015,10,16,12,30,18.40
2015,10,16,12,31,18.40
2015,10,16,12,32,18.50
2015,10,16,12,33,18.50
2015,10,16,12,34,18.50
2015,10,16,12,35,18.50
2015,10,16,12,36,18.60
2015,10,16,12,37,18.70
2015,10,16,12,38,18.70
2015,10,16,12,39,18.70
2015,10,16,12,40,18.80
2015,10,16,12,41,18.80
2015,10,16,12,42,18.80
2015,10,16,12,43,18.80
2015,10,16,12,44,18.80
2015,10,16,12,45,18.80
2015,10,16,12,46,18.70
2015,10,16,12,47,18.70
2015,10,16,12,48,18.70
2015,10,16,12,49,18.70
2015,10,16,12,50,18.70
2015,10,16,12,51,18.70
2015,10,16,12,52,18.70
2015,10,16,12,53,18.70
2015,10,16,12,54,18.80
2015,10,16,12,55,18.80
2015,10,16,12,56,18.90
2015,10,16,12,57,18.90
2015,10,16,12,58,18.90
2015,10,16,12,59,19.00
2015,10,16,13,00,19.00
2015,10,16,13,01,19.00
2015,10,16,13,02,19.00
2015,10,16,13,03,18.90
2015,10,16,13,04,18.80
2015,10,16,13,05,18.80
2015,10,16,13,06,18.90
2015,10,16,13,07,18.90
2015,10,16,13,08,19.00
2015,10,16,13,09,19.00
2015,10,16,13,10,19.10
2015,10,16,13,11,19.10
2015,10,16,13,12,19.00
2015,10,16,13,13,19.00
2015,10,16,13,14,18.90
2015,10,16,13,15,18.90
2015,10,16,13,16,18.80
2015,10,16,13,17,18.80
2015,10,16,13,18,18.80
2015,10,16,13,19,18.80
2015,10,16,13,20,18.70
2015,10,16,13,21,18.70
2015,10,16,13,22,18.70
2015,10,16,13,23,18.70
2015,10,16,13,24,18.70
2015,10,16,13,25,18.70
2015,10,16,13,26,18.70
2015,10,16,13,27,18.80
2015,10,16,13,28,18.80
2015,10,16,13,29,18.80
2015,10,16,13,30,18.80
2015,10,16,13,31,18.80
2015,10,16,13,32,18.90
2015,10,16,13,33,18.90
2015,10,16,13,34,19.00
2015,10,16,13,35,19.00
2015,10,16,13,36,19.10
2015,10,16,13,37,19.10
2015,10,16,13,38,19.20
2015,10,16,13,39,19.20
2015,10,16,13,40,19.20
2015,10,16,13,41,19.30
2015,10,16,13,42,19.30
2015,10,16,13,43,19.40
2015,10,16,13,44,19.40
2015,10,16,13,45,19.50
2015,10,16,13,46,19.60
2015,10,16,13,47,19.70
2015,10,16,13,48,19.70
2015,10,16,13,49,19.70
2015,10,16,13,50,19.70
2015,10,16,13,51,19.70
2015,10,16,13,52,19.70
2015,10,16,13,53,19.70
2015,10,16,13,54,19.70
2015,10,16,13,55,19.70
2015,10,16,13,56,19.70
2015,10,16,13,57,19.80
2015,10,16,13,58,19.80
2015,10,16,13,59,19.90
2015,10,16,14,00,19.90
2015,10,16,14,01,20.00
2015,10,16,14,02,20.00
2015,10,16,14,03,19.90
2015,10,16,14,04,19.90
2015,10,16,14,05,19.90
2015,10,16,14,06,20.00
2015,10,16,14,07,20.10
2015,10,16,14,08,20.10
2015,10,16,14,09,20.20
2015,10,16,14,10,20.20
2015,10,16,14,11,20.20
2015,10,16,14,12,20.30
2015,10,16,14,13,20.30
2015,10,16,14,14,20.30
2015,10,16,14,15,20.30
2015,10,16,14,16,20.20
2015,10,16,14,17,20.20
2015,10,16,14,18,20.10
2015,10,16,14,19,20.10
2015,10,16,14,20,20.00
2015,10,16,14,21,20.00
2015,10,16,14,22,20.10
2015,10,16,14,23,20.10
2015,10,16,14,24,20.10
2015,10,16,14,25,20.10
2015,10,16,14,26,20.10
2015,10,16,14,27,20.10
2015,10,16,14,28,20.20
2015,10,16,14,29,20.20
2015,10,16,14,30,20.20
2015,10,16,14,31,20.20
2015,10,16,14,32,20.30
2015,10,16,14,33,20.30
2015,10,16,14,34,20.30
2015,10,16,14,35,20.40
2015,10,16,14,36,20.40
2015,10,16,14,37,20.50
2015,10,16,14,38,20.50
2015,10,16,14,39,20.60
2015,10,16,14,40,20.60
2015,10,16,14,41,20.60
2015,10,16,14,42,20.70
2015,10,16,14,43,20.70
2015,10,16,14,44,20.70
2015,10,16,14,45,20.80
2015,10,16,14,46,20.80
2015,10,16,14,47,20.80
2015,10,16,14,48,20.90
2015,10,16,14,49,20.90
2015,10,16,14,50,20.90
2015,10,16,14,51,20.90
2015,10,16,14,52,20.90
2015,10,16,14,53,20.90
2015,10,16,14,54,21.00
2015,10,16,14,55,21.10
2015,10,16,14,56,21.10
2015,10,16,14,57,21.20
2015,10,16,14,58,21.20
2015,10,16,14,59,21.20
2015,10,16,15,00,21.20
2015,10,16,15,01,21.20
2015,10,16,15,02,21.20
2015,10,16,15,03,21.20
2015,10,16,15,04,21.20
2015,10,16,15,05,21.20
2015,10,16,15,06,21.10
2015,10,16,15,07,21.10
2015,10,16,15,08,21.10
2015,10,16,15,09,21.10
2015,10,16,15,10,21.10
2015,10,16,15,11,21.10
2015,10,16,15,12,21.00
2015,10,16,15,13,21.00
2015,10,16,15,14,21.00
2015,10,16,15,15,21.00
2015,10,16,15,16,21.00
2015,10,16,15,17,21.00
2015,10,16,15,18,21.00
2015,10,16,15,19,21.00
2015,10,16,15,20,21.10
2015,10,16,15,21,21.10
2015,10,16,15,22,21.10
2015,10,16,15,23,21.10
2015,10,16,15,24,21.10
2015,10,16,15,25,21.10
2015,10,16,15,26,21.00
2015,10,16,15,27,20.90
2015,10,16,15,28,20.90
2015,10,16,15,29,20.80
2015,10,16,15,30,20.80
2015,10,16,15,31,20.70
2015,10,16,15,32,20.60
2015,10,16,15,33,20.60
2015,10,16,15,34,20.50
2015,10,16,15,35,20.40
2015,10,16,15,36,20.40
2015,10,16,15,37,20.40
2015,10,16,15,38,20.30
2015,10,16,15,39,20.30
2015,10,16,15,40,20.30
2015,10,16,15,41,20.30
2015,10,16,15,42,20.30
2015,10,16,15,43,20.30
2015,10,16,15,44,20.30
2015,10,16,15,45,20.30
2015,10,16,15,46,20.40
2015,10,16,15,47,20.40
2015,10,16,15,48,20.40
2015,10,16,15,49,20.40
2015,10,16,15,50,20.40
2015,10,16,15,51,20.40
2015,10,16,15,52,20.40
2015,10,16,15,53,20.40
2015,10,16,15,54,20.40
2015,10,16,15,55,20.40
2015,10,16,15,56,20.40
2015,10,16,15,57,20.40
2015,10,16,15,58,20.40
2015,10,16,15,59,20.40
2015,10,16,16,00,20.40
2015,10,16,16,01,20.40
2015,10,16,16,02,20.30
2015,10,16,16,03,20.30
2015,10,16,16,04,20.40
2015,10,16,16,05,20.40
2015,10,16,16,06,20.40
2015,10,16,16,07,20.40
2015,10,16,16,08,20.40
2015,10,16,16,09,20.40
2015,10,16,16,10,20.40
2015,10,16,16,11,20.40
2015,10,16,16,12,20.40
2015,10,16,16,13,20.40
2015,10,16,16,14,20.40
2015,10,16,16,15,20.40
2015,10,16,16,16,20.40
2015,10,16,16,17,20.50
2015,10,16,16,18,20.50
2015,10,16,16,19,20.60
2015,10,16,16,20,20.60
2015,10,16,16,21,20.50
2015,10,16,16,22,20.20
2015,10,16,16,23,19.90
2015,10,16,16,24,19.50
2015,10,16,16,25,19.10
2015,10,16,16,26,18.80
2015,10,16,16,27,18.50
2015,10,16,16,28,18.30
2015,10,16,16,29,18.10
2015,10,16,16,30,17.90
2015,10,16,16,31,17.80
2015,10,16,16,32,17.80
2015,10,16,16,33,17.70
2015,10,16,16,34,17.70
2015,10,16,16,35,17.60
2015,10,16,16,36,17.60
2015,10,16,16,37,17.60
2015,10,16,16,38,17.50
2015,10,16,16,39,17.40
2015,10,16,16,40,17.40
2015,10,16,16,41,17.30
2015,10,16,16,42,17.20
2015,10,16,16,43,17.20
2015,10,16,16,44,17.20
2015,10,16,16,45,17.10
2015,10,16,16,46,17.00
2015,10,16,16,47,17.00
2015,10,16,16,48,16.90
2015,10,16,16,49,16.80
2015,10,16,16,50,16.80
2015,10,16,16,51,16.80
2015,10,16,16,52,16.80
2015,10,16,16,53,16.80
2015,10,16,16,54,16.80
2015,10,16,16,55,16.80
2015,10,16,16,56,16.80
2015,10,16,16,57,16.80
2015,10,16,16,58,16.80
2015,10,16,16,59,16.80
2015,10,16,17,00,16.80
2015,10,16,17,01,16.80
2015,10,16,17,02,16.80
2015,10,16,17,03,16.80
2015,10,16,17,04,16.70
2015,10,16,17,05,16.70
2015,10,16,17,06,16.70
2015,10,16,17,07,16.70
2015,10,16,17,08,16.70
2015,10,16,17,09,16.70
2015,10,16,17,10,16.70
2015,10,16,17,11,16.70
2015,10,16,17,12,16.60
2015,10,16,17,13,16.60
2015,10,16,17,14,16.50
2015,10,16,17,15,16.40
2015,10,16,17,16,16.40
2015,10,16,17,17,16.30
2015,10,16,17,18,16.30
2015,10,16,17,19,16.20
2015,10,16,17,20,16.20
2015,10,16,17,21,16.20
2015,10,16,17,22,16.20
2015,10,16,17,23,16.10
2015,10,16,17,24,16.10
2015,10,16,17,25,16.10
2015,10,16,17,26,16.10
2015,10,16,17,27,16.10
2015,10,16,17,28,16.00